Location: Silent Lake
(44.9206°N, 78.0708°W)
Time: 07:32:31
(UTC-05:00)

Daily predictions for brighter satellites

Satellite Brightness Start Highest point End
(mag) Time Altitude Azimuth Time Altitude Azimuth Time Altitude Azimuth
FENGYUN 3A 3.7 18:15:12 10° SSE 18:20:35 81° ENE 18:26:03 10° NNW
Iridium 4 Rocket 3.9 18:20:39 10° NNE 18:25:02 33° E 18:29:04 10° SE
Cosmos 1633 3.0 18:23:24 10° SSE 18:26:43 38° E 18:30:04 10° NNE
Cosmos 2237 Rocket 3.4 18:22:20 10° NW 18:27:41 47° WSW 18:33:02 10° S
Cosmos 158 Rocket 4.0 18:23:11 10° S 18:27:54 51° ESE 18:32:38 10° NNE
ATLAS 3B R/B 3.9 18:21:34 10° WSW 18:28:21 43° NW 18:34:55 10° NNE
Cosmos 2227 Rocket 2.6 18:22:44 10° SSW 18:28:21 71° WNW 18:34:02 10° NNE
SKYMED 2 3.6 18:25:56 10° NNE 18:30:19 88° WNW 18:34:39 10° SSW
SL-16 R/B 2.2 18:27:37 10° NNW 18:33:19 83° ENE 18:38:59 10° SSE
Cosmos 1452 Rocket 3.6 18:29:40 10° NNW 18:34:58 86° WSW 18:40:13 10° SSE
NOSS 3-2 (A) 4.2 18:29:19 10° WSW 18:35:13 53° NW 18:41:47 10° NNE
Cosmos 1975 Rocket 3.9 18:34:29 10° NNE 18:38:25 30° ENE 18:42:21 10° SE
Cosmos 1048 Rocket 4.3 18:35:37 10° S 18:40:40 46° ESE 18:45:43 10° NNE
Cosmos 2297 Rocket 2.7 18:36:20 10° SW 18:41:56 64° WNW 18:47:36 10° NNE
Tiangong 2 3.9 18:40:07 10° WSW 18:41:57 15° SSW 18:43:48 10° S
ERS-2 2.4 18:40:59 10° SE 18:44:31 45° ENE 18:48:03 10° N
FREGAT/IRIS 3.0 18:41:59 10° SE 18:44:47 40° ENE 18:47:36 10° N
H-2A R/B 2.7 18:41:48 10° SSE 18:45:41 69° ENE 18:49:34 10° N
Cosmos 44 Rocket 3.7 18:42:19 10° NW 18:47:21 71° WSW 18:52:27 10° SSE
SPOT 3 Rocket 3.7 18:43:38 10° SSE 18:48:50 84° WSW 18:54:06 10° NNW
SJ-6B 3.4 18:46:33 10° SE 18:49:58 33° ENE 18:53:29 10° N
Cosmos 1513 Rocket 4.5 18:43:51 10° N 18:50:12 69° E 18:56:25 10° SSE
Cosmos 1603 4.1 18:46:37 10° NNW 18:52:00 42° ENE 18:57:18 10° SE
ATLAS CENTAUR R/B 3.0 18:49:31 10° N 18:52:27 18° NE 18:54:03 15° ENE
CZ-4C R/B 3.6 18:47:19 10° NNW 18:53:26 33° NE 18:58:38 16° E
Cosmos 1420 Rocket 4.3 18:48:18 10° NNW 18:53:35 74° WSW 18:58:52 10° SSE
Resurs 01 Rocket 3.0 18:51:54 16° E 18:53:45 20° ENE 18:56:58 10° NNE
Aureole 3 4.2 18:52:56 10° SSW 18:58:35 70° W 19:02:58 10° N
SL-8 R/B 3.7 18:53:49 10° WSW 18:58:36 86° NNW 19:02:11 18° ENE
Meteor 1-20 Rocket 4.2 18:53:13 10° S 18:58:55 82° E 19:04:47 10° NNE
Cosmos 1378 Rocket 3.6 18:55:02 10° N 18:59:29 86° W 19:03:55 10° S
Cosmos 1812 4.0 18:56:04 10° NNW 18:59:47 45° W 19:03:30 10° SSW
ARGOS Delta rocket 4.4 18:57:12 10° NNE 19:01:34 33° E 19:05:43 10° SSE
Okean 1 3.2 18:59:02 10° N 19:03:03 74° E 19:07:00 10° SSE
CZ-2D R/B 3.6 19:03:49 10° SE 19:07:32 44° ENE 19:11:16 10° N
ALOS 4.2 19:03:44 10° SSW 19:07:57 33° W 19:12:11 10° NNW
Cosmos 2263 Rocket 3.4 19:05:41 10° SE 19:09:12 20° ESE 19:09:12 20° ESE
SeaSat 1 2.7 19:07:34 15° SE 19:11:28 48° NE 19:16:13 10° NNW
Cosmos 1782 Rocket 3.5 19:07:20 10° S 19:11:44 65° E 19:16:07 10° NNE
USA 215 3.7 19:08:39 17° ENE 19:13:22 40° SE 19:19:26 10° SSW
Tsikada Rocket 4.0 19:10:12 10° S 19:16:29 61° E 19:22:47 10° NNE
Cosmos 1602 3.7 19:12:48 10° S 19:16:38 58° E 19:20:28 10° NNE
USA 186 2.8 19:21:16 30° NE 19:21:16 30° NE 19:23:36 10° N
Sich 1 Rocket 3.8 19:17:41 10° SSW 19:22:10 75° W 19:26:39 10° N
Cosmos 1184 Rocket 3.9 19:19:25 10° N 19:21:32 28° NE 19:21:32 28° NE
Envisat 2.9 19:21:05 10° SSE 19:26:06 67° ENE 19:31:10 10° N
Meteor 2-4 Rocket 3.8 19:25:03 10° N 19:30:47 58° ENE 19:36:06 11° SSE
Meteor 1-4 Rocket 2.6 19:30:25 10° S 19:33:28 53° SE 19:33:28 53° SE
HJ-1C 4.0 19:30:40 10° S 19:34:02 57° W 19:37:25 10° NNW
Cosmos 2227 4.1 19:28:28 10° SSW 19:34:10 73° ESE 19:39:52 10° NNE
Okean 2 Rocket 2.9 19:30:41 10° S 19:35:02 71° E 19:39:27 10° NNE
Meteor 1-19 Rocket 4.1 19:29:53 10° N 19:35:26 88° E 19:41:00 10° S
Thor Agena Rocket 3.4 19:31:44 10° NNE 19:36:51 74° ESE 19:41:52 10° S
Cosmos 1437 Rocket 3.3 19:33:21 10° SSW 19:37:23 63° WNW 19:41:29 10° N
Cosmos 494 Rocket 4.0 19:32:45 10° S 19:37:50 55° ESE 19:42:54 10° NNE
Cosmos 1110 Rocket 3.9 19:34:38 10° NNW 19:39:57 85° ENE 19:43:58 18° SSE
Cosmos 1269 Rocket 4.3 19:36:42 10° SSW 19:41:58 69° WNW 19:47:16 10° NNE
Cosmos 921 Rocket 4.5 19:39:05 10° NNW 19:43:19 39° WSW 19:47:27 10° S
Meteor 1-11 Rocket 3.6 19:38:50 10° S 19:44:21 67° E 19:50:02 10° NNE
CENTAUR R/B 3.2 19:41:44 10° WSW 19:47:46 55° NW 19:54:43 10° NNE
USA 267 3.7 19:45:34 33° ENE 19:48:06 48° NNE 19:54:19 10° NW
YAOGAN 6 3.9 19:50:48 30° N 19:50:48 30° N 19:52:49 10° N
Gbstr 26 Del rocket 2.9 19:48:21 10° SW 19:51:32 56° S 19:51:32 56° S
Cosmos 2279 Rocket 4.2 19:48:19 10° N 19:54:17 44° ENE 19:54:40 44° E
Cosmos 1943 3.1 19:52:00 10° NNW 19:57:42 76° ENE 19:59:20 48° SE
Cosmos 2346 Rocket 4.5 19:55:17 10° S 20:01:29 82° W 20:07:40 10° N
Cosmos 1939 Rocket 2.9 20:02:39 73° N 20:02:39 73° N 20:06:24 10° NNW
H-2A R/B 4.0 20:09:18 18° NNE 20:09:18 18° NNE 20:11:06 10° N
COSMOS 2455 2.7 20:03:51 10° SSW 20:09:50 75° ESE 20:11:40 47° NE
Cosmos 1331 Rocket 4.5 20:05:38 10° NNW 20:10:52 60° WSW 20:13:41 27° S
Resurs 1-3 3.8 20:12:36 60° SW 20:13:09 67° W 20:17:32 10° NNW
Cosmos 1634 Rocket 4.0 20:08:30 10° N 20:14:41 81° W 20:19:11 20° S
Spot 2 Rocket 3.4 20:15:08 66° S 20:15:51 84° WSW 20:20:57 10° NNW
Geosat 4.3 20:17:27 52° S 20:17:27 52° S 20:21:17 10° SSW
BREEZE-M DEB (TANK) 4.0 20:15:47 10° W 20:17:02 23° WSW 20:17:02 23° WSW
Meteor 1-23 Rocket 4.2 20:16:28 10° NNW 20:22:20 85° W 20:23:35 58° S
CZ-3B R/B 4.0 20:13:55 10° SW 20:23:28 75° SW 20:23:28 75° SW
Resurs 01 Rocket 2.6 20:29:27 43° WSW 20:29:54 45° W 20:34:10 10° NNW
ATLAS CENTAUR R/B 2.7 20:27:38 10° NW 20:30:20 39° NW 20:30:20 39° NW
CZ-4C R/B 2.9 20:35:33 10° NW 20:42:43 81° SW 20:43:52 67° SSE
SeaSat 1 4.3 20:47:22 21° SW 20:49:10 26° WSW 20:53:15 10° NW
Cosmos 2263 Rocket 3.1 20:47:30 10° SW 20:51:05 39° SW 20:51:05 39° SW
USA 215 3.4 20:56:01 65° N 20:56:37 69° NNW 21:03:05 10° WSW
USA 267 4.0 21:32:55 47° WNW 21:32:55 47° WNW 21:37:30 10° NW
